Location: ??????
(41.3164°N, 22.6615°E)
Time: 02:02:26
(UTC+00:00)

UWE-3 - Pass Details

Date: 09 July 2022
Orbit: 583 x 677 km, 97.7° (Epoch: 16 August)

Event Time Altitude Azimuth Distance (km) Brightness Sun altitude
Rises 01:43:34 0° 15° (NNE) 2,942 ? -12.7°
Reaches altitude 10° 01:45:46 10° 17° (NNE) 2,043 ? -12.4°
Maximum altitude 01:50:12 69° 101° (E) 703 ? -11.8°
Drops below altitude 10° 01:54:44 10° 185° (S) 2,079 ? -11.2°
Enters shadow 01:55:14 - 186° (S) 2,275 ? -11.2°
